EW2817 Weather Reports


Display with metric or nautical units.
time (UTC)temp
F
wind
direction
speed
MPH
gust
MPH
rain 1hr
in
rain 24hr
in
rain mn
in
humidity
%
barometer
mb
20260509103308 52 0 0.0 0.0 0.00 0.00 0.00 94 989.0
20260509101806 52 0 0.0 0.0 0.00 0.00 0.00 94 989.1
20260509100305 52 0 0.0 0.0 0.00 0.00 0.00 94 989.2
20260509093302 53 0 0.0 0.0 0.00 0.00 0.00 93 989.4
20260509091802 53 0 0.0 0.0 0.00 0.00 0.00 92 989.5
20260509090300 53 0 0.0 0.0 0.00 0.00 0.00 92 989.5
20260509084802 53 0 0.0 0.0 0.00 0.00 0.00 92 989.6
20260509083300 53 0 0.0 0.0 0.00 0.00 0.00 91 989.8
20260509081803 53 0 0.0 0.0 0.00 0.00 0.00 90 989.9
20260509080256 54 0 0.0 0.0 0.00 0.00 0.00 89 990.0
20260509074755 54 0 0.0 0.0 0.00 0.00 0.00 88 989.8
20260509073256 55 0 0.0 0.0 0.00 0.00 0.00 87 989.8
20260509071755 55 0 0.0 0.0 0.00 0.00 0.00 86 990.0
20260509070255 55 0 0.0 0.0 0.00 0.00 0.00 86 989.9
20260509064753 56 0 0.0 0.0 0.00 0.00 0.00 85 990.0
20260509063253 56 0 0.0 0.0 0.00 0.00 0.00 84 990.3
20260509061753 56 0 0.0 0.0 0.00 0.00 0.00 83 990.7
20260509060254 56 0 0.0 0.0 0.00 0.00 0.00 81 990.7
20260509054753 56 0 0.0 0.0 0.00 0.00 0.00 81 990.9
20260509053253 56 0 0.0 0.0 0.00 0.00 0.00 80 991.1
20260509043250 57 0 0.0 0.0 0.00 0.00 0.00 76 991.2
20260509041749 57 0 0.0 0.0 0.00 0.00 0.00 76 991.1
20260509040247 58 0 0.0 0.0 0.00 0.00 0.00 73 991.2
20260509033246 58 0 0.0 0.0 0.00 0.00 0.00 72 991.2
20260509031745 58 0 0.0 0.0 0.00 0.00 0.00 71 991.2
20260509030242 58 0 0.0 0.0 0.00 0.00 0.00 69 991.4
20260509024742 58 0 0.0 0.0 0.00 0.00 0.00 70 991.6
20260509023239 58 0 0.0 0.0 0.00 0.00 0.00 69 991.8
20260509020238 59 0 0.0 0.0 0.00 0.00 0.00 69 991.8
20260509013237 59 0 0.0 0.0 0.00 0.00 0.00 70 991.7
20260509011732 60 0 0.0 0.0 0.00 0.00 0.00 69 991.5
20260509010232 60 0 0.0 0.0 0.00 0.00 0.00 67 991.4
20260509004732 60 0 0.0 0.0 0.00 0.00 0.00 68 991.1
20260509003231 61 0 0.0 0.0 0.00 0.00 0.00 67 991.1
20260509001728 62 0 0.0 0.0 0.00 0.00 0.00 65 990.9
20260509000227 64 0 0.0 0.0 0.00 0.00 0.00 62 991.0
20260508234728 65 0 0.0 0.0 0.00 0.00 0.00 63 991.1
20260508233228 65 0 0.0 0.0 0.00 0.00 0.00 59 990.9
20260508231726 66 0 0.0 0.0 0.00 0.00 0.00 58 990.9
20260508224725 67 0 0.0 0.0 0.00 0.00 0.00 52 990.7
20260508223224 67 0 0.0 0.0 0.00 0.00 0.00 54 990.6
20260508221725 68 0 0.0 0.0 0.00 0.00 0.00 44 990.5
20260508220222 68 0 0.0 0.0 0.00 0.00 0.00 52 990.7
20260508214717 68 0 0.0 0.0 0.00 0.00 0.00 46 990.5
20260508211716 68 0 0.0 0.0 0.00 0.00 0.00 44 990.6
20260508210216 69 0 0.0 0.0 0.00 0.00 0.00 41 990.7
20260508204714 69 0 0.0 0.0 0.00 0.00 0.00 43 991.1
20260508203213 69 0 0.0 0.0 0.00 0.00 0.00 41 991.1
20260508201712 69 0 0.0 0.0 0.00 0.00 0.00 44 991.0
20260508194710 70 0 0.0 0.0 0.00 0.00 0.00 40 991.3
20260508191727 70 0 0.0 0.0 0.00 0.01 0.00 43 991.7
20260508190211 71 0 0.0 0.0 0.00 0.02 0.00 43 991.9
20260508184712 71 0 0.0 0.0 0.00 0.04 0.00 44 992.1
20260508183212 71 0 0.0 0.0 0.00 0.05 0.00 44 992.3
20260508181703 71 0 0.0 0.0 0.00 0.07 0.00 44 992.4
20260508174701 71 0 0.0 0.0 0.00 0.10 0.00 47 992.9
20260508173159 70 0 0.0 0.0 0.00 0.11 0.00 46 993.0
20260508171659 69 0 0.0 0.0 0.00 0.15 0.00 44 993.1
20260508170157 70 0 0.0 0.0 0.00 0.16 0.00 48 993.3
20260508164659 69 0 0.0 0.0 0.00 0.17 0.00 46 993.6
20260508163157 68 0 0.0 0.0 0.00 0.19 0.00 50 993.8
20260508160156 66 0 0.0 0.0 0.00 0.22 0.00 53 994.1
20260508154655 65 0 0.0 0.0 0.00 0.23 0.00 67 994.2
20260508153154 65 0 0.0 0.0 0.00 0.24 0.00 62 994.5
20260508151653 63 0 0.0 0.0 0.00 0.25 0.00 69 994.6
20260508150151 63 0 0.0 0.0 0.00 0.26 0.00 65 994.6
20260508144650 61 0 0.0 0.0 0.00 0.27 0.00 68 994.5
20260508143151 60 0 0.0 0.0 0.00 0.28 0.00 78 994.4
20260508141649 57 0 0.0 0.0 0.00 0.29 0.00 84 994.3
20260508140149 55 0 0.0 0.0 0.00 0.30 0.00 93 994.2
20260508134648 53 0 0.0 0.0 0.00 0.31 0.00 96 994.1
20260508133145 51 0 0.0 0.0 0.00 0.33 0.00 96 994.0
20260508131642 51 0 0.0 0.0 0.00 0.34 0.00 96 993.9
20260508130142 50 0 0.0 0.0 0.00 0.35 0.00 96 993.9
20260508124640 49 0 0.0 0.0 0.00 0.36 0.00 96 994.0
20260508121640 47 0 0.0 0.0 0.00 0.38 0.00 96 993.6
20260508120138 47 0 0.0 0.0 0.00 0.38 0.00 96 993.4
20260508114637 47 0 0.0 0.0 0.00 0.39 0.00 96 993.2
20260508113133 47 0 0.0 0.0 0.00 0.40 0.00 96 993.1
20260508111626 47 0 0.0 0.0 0.00 0.41 0.00 96 992.8